Météo par heure à Allières

Ce jour, 15 Mai, Samedi

Heure Température Précipitation Vent Pression Humidité
00:00 +10°C° 0 mm 1 m/s 716 mmHg 71%
01:00 +11°C° 0 mm 1 m/s 716 mmHg 69%
02:00 +11°C° 0 mm 1 m/s 715 mmHg 67%
03:00 +10°C° 0 mm 2 m/s 714 mmHg 66%
04:00 +12°C° 0 mm 1 m/s 715 mmHg 66%
05:00 +12°C° 0 mm 1 m/s 715 mmHg 66%
06:00 +12°C° 0 mm 1 m/s 715 mmHg 64%
07:00 +13°C° 0 mm 1 m/s 715 mmHg 65%
08:00 +13°C° 0 mm 1 m/s 715 mmHg 66%
09:00 +14°C° 0 mm 1 m/s 714 mmHg 67%
10:00 +15°C° 0 mm 1 m/s 714 mmHg 67%
11:00 +15°C° 0 mm 1 m/s 714 mmHg 67%
12:00 +16°C° 0 mm 1 m/s 714 mmHg 66%
13:00 +16°C° 0 mm 1 m/s 714 mmHg 70%
14:00 +15°C° 0 mm 1 m/s 714 mmHg 73%
15:00 +15°C° 0 mm 1 m/s 715 mmHg 77%
16:00 +14°C° 0.2 mm 1 m/s 715 mmHg 83%
17:00 +12°C° 0.2 mm 0 m/s 715 mmHg 89%
18:00 +12°C° 0.2 mm 0 m/s 715 mmHg 95%
19:00 +12°C° 0.2 mm 0 m/s 715 mmHg 94%
20:00 +13°C° 0.2 mm 1 m/s 715 mmHg 94%
21:00 +13°C° 0.2 mm 1 m/s 715 mmHg 94%
22:00 +13°C° 0 mm 1 m/s 714 mmHg 94%
23:00 +13°C° 0 mm 1 m/s 714 mmHg 94%

Demain, 16 Mai, Dimanche

Heure Température Précipitation Vent Pression Humidité
00:00 +13°C° 0 mm 1 m/s 714 mmHg 93%
01:00 +13°C° 0 mm 1 m/s 713 mmHg 93%
02:00 +13°C° 0 mm 1 m/s 713 mmHg 92%
03:00 +14°C° 0 mm 1 m/s 713 mmHg 92%
04:00 +14°C° 0 mm 1 m/s 713 mmHg 91%
05:00 +14°C° 0 mm 1 m/s 713 mmHg 91%
06:00 +15°C° 0 mm 1 m/s 713 mmHg 90%
07:00 +15°C° 0 mm 1 m/s 713 mmHg 90%
08:00 +16°C° 0 mm 1 m/s 714 mmHg 89%
09:00 +16°C° 0 mm 2 m/s 714 mmHg 89%
10:00 +16°C° 0.3 mm 2 m/s 715 mmHg 91%
11:00 +15°C° 0.3 mm 2 m/s 715 mmHg 93%
12:00 +15°C° 0.3 mm 2 m/s 715 mmHg 96%
13:00 +13°C° 0.2 mm 3 m/s 715 mmHg 95%
14:00 +13°C° 0.2 mm 3 m/s 716 mmHg 95%
15:00 +12°C° 0.2 mm 3 m/s 716 mmHg 95%
16:00 +12°C° 0.2 mm 3 m/s 716 mmHg 96%
17:00 +11°C° 0.2 mm 3 m/s 716 mmHg 96%
18:00 +11°C° 0.2 mm 3 m/s 717 mmHg 96%
19:00 +10°C° 0 mm 2 m/s 717 mmHg 95%
20:00 +10°C° 0 mm 2 m/s 717 mmHg 95%
21:00 +10°C° 0 mm 2 m/s 717 mmHg 95%
22:00 +10°C° 0.1 mm 2 m/s 717 mmHg 95%
23:00 +10°C° 0.1 mm 2 m/s 717 mmHg 95%

Après-demain, 17 Mai, Lundi

Heure Température Précipitation Vent Pression Humidité
00:00 +11°C° 0.1 mm 1 m/s 717 mmHg 95%
01:00 +10°C° 0.2 mm 1 m/s 717 mmHg 95%
02:00 +10°C° 0.2 mm 1 m/s 717 mmHg 95%
03:00 +10°C° 0.2 mm 1 m/s 717 mmHg 96%
04:00 +9°C° 0.1 mm 2 m/s 717 mmHg 95%
05:00 +10°C° 0.1 mm 2 m/s 718 mmHg 94%
06:00 +10°C° 0.1 mm 2 m/s 718 mmHg 93%
07:00 +10°C° 0 mm 2 m/s 718 mmHg 92%
08:00 +10°C° 0 mm 2 m/s 719 mmHg 90%
09:00 +10°C° 0 mm 3 m/s 719 mmHg 89%
10:00 +11°C° 0 mm 3 m/s 719 mmHg 83%
11:00 +12°C° 0 mm 3 m/s 719 mmHg 78%
12:00 +12°C° 0 mm 3 m/s 719 mmHg 72%
13:00 +13°C° 0 mm 3 m/s 719 mmHg 70%
14:00 +13°C° 0 mm 3 m/s 719 mmHg 68%
15:00 +13°C° 0 mm 4 m/s 719 mmHg 66%
16:00 +13°C° 0 mm 4 m/s 719 mmHg 68%
17:00 +12°C° 0 mm 4 m/s 720 mmHg 70%
18:00 +12°C° 0 mm 3 m/s 720 mmHg 72%
19:00 +11°C° 0 mm 3 m/s 721 mmHg 75%
20:00 +10°C° 0 mm 3 m/s 721 mmHg 78%
21:00 +9°C° 0 mm 3 m/s 722 mmHg 82%
22:00 +8°C° 0 mm 2 m/s 722 mmHg 84%
23:00 +7°C° 0 mm 2 m/s 722 mmHg 86%

18 Mai, Mardi

Heure Température Précipitation Vent Pression Humidité
00:00 +6°C° 0 mm 2 m/s 722 mmHg 88%
01:00 +6°C° 0 mm 2 m/s 722 mmHg 86%
02:00 +5°C° 0 mm 2 m/s 722 mmHg 83%
03:00 +5°C° 0 mm 2 m/s 722 mmHg 81%
04:00 +6°C° 0 mm 2 m/s 723 mmHg 77%
05:00 +7°C° 0 mm 2 m/s 723 mmHg 74%
06:00 +7°C° 0 mm 2 m/s 723 mmHg 71%
07:00 +9°C° 0 mm 2 m/s 723 mmHg 63%
08:00 +11°C° 0 mm 3 m/s 724 mmHg 55%
09:00 +13°C° 0 mm 3 m/s 724 mmHg 47%
10:00 +14°C° 0 mm 3 m/s 723 mmHg 45%
11:00 +16°C° 0 mm 3 m/s 723 mmHg 44%
12:00 +17°C° 0 mm 4 m/s 723 mmHg 42%
13:00 +17°C° 0 mm 4 m/s 723 mmHg 43%
14:00 +17°C° 0 mm 4 m/s 723 mmHg 45%
15:00 +17°C° 0 mm 4 m/s 723 mmHg 47%
16:00 +16°C° 0 mm 3 m/s 723 mmHg 54%
17:00 +15°C° 0 mm 2 m/s 723 mmHg 61%
18:00 +14°C° 0 mm 2 m/s 723 mmHg 68%
19:00 +13°C° 0 mm 2 m/s 723 mmHg 70%
20:00 +13°C° 0 mm 1 m/s 724 mmHg 72%
21:00 +12°C° 0 mm 1 m/s 724 mmHg 74%
22:00 +11°C° 0 mm 1 m/s 724 mmHg 78%
23:00 +10°C° 0 mm 1 m/s 724 mmHg 81%

19 Mai, Mercredi

Heure Température Précipitation Vent Pression Humidité
00:00 +9°C° 0 mm 1 m/s 724 mmHg 85%
01:00 +9°C° 0 mm 1 m/s 724 mmHg 87%
02:00 +8°C° 0 mm 1 m/s 724 mmHg 89%
03:00 +7°C° 0 mm 1 m/s 724 mmHg 91%
04:00 +8°C° 0 mm 1 m/s 724 mmHg 86%
05:00 +8°C° 0 mm 0 m/s 724 mmHg 81%
06:00 +9°C° 0 mm 0 m/s 724 mmHg 77%
07:00 +12°C° 0 mm 1 m/s 724 mmHg 69%
08:00 +14°C° 0 mm 1 m/s 724 mmHg 61%
09:00 +16°C° 0 mm 2 m/s 724 mmHg 53%
10:00 +17°C° 0 mm 2 m/s 724 mmHg 50%
11:00 +18°C° 0 mm 3 m/s 724 mmHg 46%
12:00 +19°C° 0 mm 3 m/s 724 mmHg 42%
13:00 +19°C° 0 mm 3 m/s 723 mmHg 44%
14:00 +19°C° 0 mm 3 m/s 723 mmHg 45%
15:00 +19°C° 0 mm 3 m/s 723 mmHg 47%
16:00 +18°C° 0 mm 2 m/s 723 mmHg 54%
17:00 +17°C° 0 mm 2 m/s 723 mmHg 61%
18:00 +16°C° 0 mm 1 m/s 723 mmHg 67%
19:00 +15°C° 0 mm 1 m/s 723 mmHg 72%
20:00 +13°C° 0 mm 1 m/s 723 mmHg 76%
21:00 +11°C° 0 mm 1 m/s 723 mmHg 80%
22:00 +11°C° 0 mm 1 m/s 722 mmHg 78%
23:00 +11°C° 0 mm 1 m/s 722 mmHg 75%

20 Mai, Jeudi

Heure Température Précipitation Vent Pression Humidité
00:00 +10°C° 0 mm 2 m/s 721 mmHg 73%
01:00 +10°C° 0 mm 2 m/s 721 mmHg 71%
02:00 +12°C° 0 mm 2 m/s 721 mmHg 69%
03:00 +12°C° 0 mm 2 m/s 720 mmHg 66%
04:00 +13°C° 0 mm 2 m/s 720 mmHg 66%
05:00 +13°C° 0 mm 2 m/s 720 mmHg 65%
06:00 +14°C° 0 mm 1 m/s 720 mmHg 64%
07:00 +18°C° 0 mm 1 m/s 720 mmHg 58%
08:00 +20°C° 0 mm 1 m/s 720 mmHg 52%
09:00 +23°C° 0 mm 1 m/s 721 mmHg 46%
10:00 +23°C° 0 mm 2 m/s 721 mmHg 45%
11:00 +24°C° 0 mm 3 m/s 721 mmHg 44%
12:00 +25°C° 0 mm 4 m/s 721 mmHg 43%
13:00 +23°C° 0 mm 4 m/s 721 mmHg 49%
14:00 +22°C° 0 mm 4 m/s 721 mmHg 54%
15:00 +20°C° 0 mm 4 m/s 721 mmHg 60%
16:00 +19°C° 0 mm 4 m/s 722 mmHg 66%
17:00 +18°C° 0 mm 3 m/s 722 mmHg 73%
18:00 +16°C° 0 mm 3 m/s 722 mmHg 80%
19:00 +16°C° 0.1 mm 3 m/s 722 mmHg 83%
20:00 +14°C° 0.1 mm 3 m/s 723 mmHg 85%
21:00 +13°C° 0.1 mm 3 m/s 723 mmHg 88%
22:00 +13°C° 0 mm 2 m/s 723 mmHg 88%
23:00 +13°C° 0 mm 2 m/s 723 mmHg 88%
Voir plus

Nous avons besoin de votre consentement

Meteoprog et ses fournisseurs de services peuvent stocker et accéder à des données personnelles telles que des cookies, des identifiants d'appareils ou d'autres technologies similaires sur votre appareil et traiter ces données pour personnaliser le contenu et les publicités, ainsi que pour fournir des fonctionnalités de médias sociaux et analyser le trafic.

  • Stocker et/ou accéder à des informations sur votre appareil

    Des cookies, des identifiants d'appareils ou d'autres informations peuvent être stockés ou accessibles sur votre appareil aux fins indiquées ci-dessus.

  • Annonces et contenus personnalisés, mesure des annonces et des contenus, connaissance de l'audience et développement de produits

    Les annonces et le contenu peuvent être personnalisés en fonction d'un profil. D'autres données peuvent être ajoutées pour mieux personnaliser les annonces et le contenu. Les performances des publicités et du contenu peuvent être mesurées. Il est possible d'obtenir des informations sur le public qui a vu les publicités et le contenu. Ces données peuvent être utilisées pour développer ou améliorer l'expérience de l'utilisateur, les systèmes et les logiciels.

En cliquant sur "J'accepte", vous autorisez l'utilisation de cookies, des identifiants d'appareils, des balises web ou d'autres technologies similaires. Vos paramètres peuvent être modifiés dans le navigateur de votre appareil.

Dans certains cas, des intérêts légitimes peuvent être invoqués plutôt qu'un consentement. Vous pouvez en savoir plus à ce sujet dans notre Politique de confidentialité et de cookies.